Vertical_Velocity
-1 -2 1 -0 1 -1 -2 -1 -1 -1 -0 -0 -1 -1 -1 -1 -0 -1 -1 -1 -2 -0
0 -1 -3 -1 -1 1 2 1 1 0 -0 1 1 1 -0 -1 -1 -2 1 3 1 0
-1 -0 1 -0 1 0 2 1 -0 1 0 -1 -1 -0 -1 0 3 -0 3 -0 -1 -1
1 0 -0 -1 -0 1 -1 1 0 2 1 -0 -0 1 -1 -1 0 -4 0 2 1 2
-0 -0 -1 -1 -0 -1 -2 -1 -2 -1 -1 -0 0 1 -1 -1 1 1 1 4 1 -1
-1 -1 0 1 3 3 1 1 1 -1 1 4 5 4 5 4 1 1 -0 0 2 -1
2 2 2 1 -1 -0 1 -0 -0 -1 -5 -5 -5 -1 1 2 1 0 1 2 -0 -0
-2 -2 -2 -1 -1 -0 -1 -1 -1 -1 0 -1 -3 0 -0 2 1 -1 -2 -0 1 2
1 2 1 1 0 -1 -0 -0 0 2 -1 -1 0 4 1 2 -1 1 0 -3 -1 0
-0 0 -0 -1 -2 -3 -2 -3 -1 2 2 -1 -2 2 -1 3 -0 -2 -1 1 1 -1
1 1 -1 -2 -1 -1 -2 -2 -2 -2 2 -1 -2 1 0 1 -1 1 -4 -2 1 2
-4 -4 -4 -3 -1 1 -3 -4 -2 -1 -2 -0 -5 3 3 3 1 0 -1 -0 0 -0
-3 -2 -3 -2 -0 -1 0 -1 -0 -2 2 2 -2 3 2 2 1 -4 -1 2 -1 1
-0 -4 1 -2 -1 -4 -2 0 0 0 1 -1 1 3 3 3 -1 -1 1 -0 -5 -3
Height
1521 1521 1520 1519 1519 1518 1518 1517 1517 1516 1515 1514 1514 1513 1512 1511 1510 1509 1508 1508 1507 1506
1517 1517 1516 1515 1514 1514 1514 1514 1513 1512 1511 1510 1509 1509 1507 1507 1506 1505 1504 1503 1502 1501
1514 1514 1513 1511 1510 1510 1510 1509 1508 1508 1506 1505 1504 1503 1502 1501 1501 1500 1499 1498 1497 1496
1511 1510 1509 1508 1508 1506 1505 1505 1503 1502 1501 1499 1498 1497 1496 1495 1494 1493 1493 1491 1490 1489
1508 1507 1506 1505 1504 1502 1501 1500 1498 1496 1494 1493 1491 1491 1489 1488 1487 1485 1484 1484 1482 1482
1505 1503 1502 1501 1499 1497 1495 1494 1492 1490 1488 1486 1485 1484 1483 1481 1480 1479 1477 1476 1475 1475
1501 1499 1498 1496 1494 1492 1490 1488 1486 1483 1481 1479 1477 1475 1473 1472 1471 1470 1468 1467 1466 1465
1498 1497 1495 1492 1490 1488 1485 1483 1480 1477 1475 1473 1470 1468 1465 1463 1461 1460 1459 1458 1457 1455
1496 1494 1492 1489 1487 1484 1482 1479 1476 1472 1469 1466 1463 1460 1458 1455 1452 1451 1449 1446 1446 1445
1494 1492 1489 1486 1484 1481 1478 1474 1471 1468 1464 1460 1457 1454 1450 1447 1442 1441 1439 1438 1436 1436
1491 1488 1485 1483 1479 1476 1473 1469 1465 1462 1458 1454 1452 1448 1444 1440 1435 1431 1429 1428 1427 1426
1486 1483 1480 1477 1474 1470 1465 1462 1458 1455 1451 1447 1444 1441 1437 1432 1427 1423 1420 1418 1417 1416
1482 1479 1476 1472 1467 1463 1458 1453 1449 1445 1443 1438 1433 1432 1428 1425 1419 1414 1412 1410 1408 1406
1479 1475 1470 1465 1461 1456 1451 1445 1441 1436 1433 1430 1427 1421 1419 1415 1409 1405 1401 1399 1398 1396